Home   Weather   Guangzhou   Past weeks

Flag for China Past Weather in Guangzhou, Guangdong, China — Yesterday and Last 2 Weeks

Now
73 °F

More clouds than sun.


Feels Like: 75 °F
Forecast: 69 / 76 °F
Wind: 3 mph from East

Location: Canton Airport

Current Time: Apr 24, 2017 at 3:25:51 pm

Latest Report: Apr 24, 2017 at 3:00 pm


Visibility: 4 mi

Pressure: 29.92 "Hg

Humidity: 74%

Dew Point: 64 °F

Location of GuangzhouLocation

Past Weather in Guangzhou — Graph

°F

Guangzhou Temperature Yesterday

Maximum temperature yesterday: 77 °F (at 11:30 am)
Minimum temperature yesterday: 63 °F (at 4:00 am)
Average temperature yesterday: 69 °F

High & Low Weather Summary for the Past Weeks

 TemperatureHumidityPressure
High91 °F (Apr 17, 2:30 pm)100% (Apr 20, 7:30 am)30.09 "Hg (Apr 20, 7:30 am)
Low61 °F (Apr 12, 4:00 pm)49% (Apr 17, 2:30 pm)29.56 "Hg (Apr 10, 5:00 pm)
Average74 °F78%29.86 "Hg
* Reported Apr 9 1:00 pm — Apr 24 1:30 pm, Guangzhou, Weather by CustomWeather, © 2017

Note: Actual official high and low records may vary slightly from our data, if they occured in-between our weather recording intervals... More about our weather records

Advertising

Guangzhou Weather History for the Previous 24 Hours

Scroll right to see more
 ConditionsComfort  
Time TempWeatherWind HumidityBarometerVisibility
1:30 pm
Mon, Apr 24
73 °FOvercast.3 mph74%29.95 "Hg4 mi
1:00 pm73 °FPartly sunny.3 mph74%29.95 "Hg4 mi
12:30 pm72 °FFog.3 mph78%29.98 "Hg2 mi
12:00 pm72 °FFog.3 mph78%29.98 "Hg2 mi
11:30 am72 °FFog.1 mph78%29.98 "Hg2 mi
10:30 am70 °FFog.1 mph83%29.98 "Hg2 mi
10:00 am70 °FFog.1 mph83%30.01 "Hg1 mi
9:30 am70 °FFog.3 mph83%29.98 "Hg1 mi
9:00 am70 °FFog.6 mph88%29.98 "Hg1 mi
8:30 am68 °FFog.3 mph94%29.98 "Hg1 mi
8:00 am68 °FFog.3 mph94%29.98 "Hg1 mi
7:30 am68 °FLight rain. Fog.1 mph94%29.98 "Hg1 mi
7:00 am68 °FLight rain. Fog.3 mph94%29.98 "Hg1 mi
6:30 am68 °FLight rain. Fog.1 mph88%29.95 "Hg1 mi
6:00 am68 °FFog.1 mph88%29.95 "Hg2 mi
5:30 am68 °FFog.1 mph88%29.95 "Hg2 mi
4:30 am68 °FFog.1 mph94%29.92 "Hg2 mi
4:00 am68 °FLight rain. Fog.3 mph94%29.92 "Hg2 mi
3:30 am68 °FFog.1 mph88%29.92 "Hg2 mi
3:00 am68 °FFog.1 mph88%29.92 "Hg2 mi
2:30 am68 °FFog.1 mph88%29.92 "Hg2 mi
2:00 am68 °FFog.1 mph88%29.95 "Hg2 mi
1:30 am68 °FFog.1 mph88%29.95 "Hg2 mi
1:00 am68 °FFog.1 mph88%29.95 "Hg2 mi
12:30 am68 °FFog.1 mph88%29.98 "Hg2 mi
12:00 am68 °FFog.3 mph88%29.98 "Hg2 mi
11:30 pm
Sun, Apr 23
68 °FFog.3 mph88%29.98 "Hg3 mi
11:00 pm68 °FFog.3 mph88%29.98 "Hg3 mi
10:30 pm68 °FPassing clouds.3 mph88%29.98 "Hg4 mi
10:00 pm70 °FPassing clouds.3 mph83%29.98 "Hg4 mi
9:00 pm68 °FClear.1 mph88%29.98 "Hg4 mi
8:30 pm68 °FOvercast.1 mph94%29.95 "Hg4 mi
8:00 pm68 °FOvercast.3 mph88%29.95 "Hg4 mi
7:30 pm68 °FLight rain. Fog.3 mph88%29.95 "Hg3 mi
7:00 pm68 °FLight rain. Fog.3 mph88%29.95 "Hg3 mi
6:30 pm70 °FLight rain. Fog.6 mph78%29.92 "Hg3 mi
6:00 pm70 °FOvercast.6 mph78%29.92 "Hg4 mi
5:30 pm72 °FOvercast.8 mph73%29.92 "Hg4 mi
5:00 pm72 °FOvercast.8 mph73%29.92 "Hg5 mi
4:30 pm72 °FOvercast.3 mph73%29.92 "HgN/A
4:00 pm72 °FLight rain. Overcast.3 mph73%29.92 "Hg5 mi
3:30 pm73 °FPartly sunny.6 mph65%29.92 "HgN/A
3:00 pm75 °FPartly sunny.6 mph61%29.92 "HgN/A
Weather by CustomWeather, © 2017

See weather overviewHow to use our weather pages